GOES 2 AKM, 20799

Orbit data source: Space-Track

GOES 2 AKM, 20799 is space debris in GEO originally from a launch on Thu, 16 Jun 1977 UTC launched from the Air Force Eastern Test Range (AFETR). Debris objects in space refer to the collection of defunct objects orbiting the Earth. Examples of debris include non-operational satellites, rocket bodies, and fragments generated from explosions, collisions, or faulty payload assembly.

Not visible in the next 10 days
Identifier
20799, 1977-048G
Orbit
GEO
Country
Flag of USUS
Related business
Manufacturer
Aerojet
Mission
Spacecraft
Bus & Motor
SVM, SVM-5
Mass
Wet unknown, 31 kg dry
Launch date (UTC)
1977-06-16 (48 years ago)
Launch vehicle
Unknown
Launch site
Air Force Eastern Test Range (AFETR)
Object type
Payload
Rocket body
Debris
Shape & HBR
Unknown
Radar Cross Section
Medium (>0.1 m² and <1 m²)

Expand to show TLE details & history
Last TLE update: 1 day ago

TLE from 1 day ago
0 GOES 2 AKM
1 20799U 77048G   25306.34489284 -.00000383  00000-0  00000+0 0  9995
2 20799   4.6822 278.3625 0205411 101.0992 261.0292  1.00574462115546
Epoch: 2025-11-02T08:16Z
TLE epoch observation values (Epoch: 2025-11-02T08:16:38.741Z)
Latitude
-0.00216°
Longitude
112.10123°
Altitude
35,856.937 km
Speed
3.066 km/s
True Right ascension
18h 32m 29s
True Declination
0° 00' 08"
Sunlit
Object was in daylight at epoch
Visualization orbit readout
Latitude
Unknown
Longitude
Unknown
Altitude
Unknown
Speed
Unknown
Apparent Right ascension
Unknown
Apparent Declination
Unknown
Sunlit
N/A
Visualization observer readout
Local Sidereal Time
14:13:50
Azimuth
Unknown
Elevation
Unknown
Doppler factor
Unknown
Orbital elements
Apogee altitude
36,567.412 km
Perigee altitude
34,838.626 km
Semi-major axis
42,081.156 km
Eccentricity
0.02054
Inclination
4.6822°
RAAN
278.3625°
Arg. of periapsis
101.0992°
True anomaly
258.71406°
Mean anomaly
261.0292°
Eccentric anomaly
259.87063°
Mean motion
0.25143 °/min
Orbital period
1,431.83 mins
BSTAR
0
Loading maneuver chart data...
Computing Atmospheric mass density...
Loading historical data...
Loading historical data...
Loading historical data...
Loading historical data...
Loading historical data...
Loading historical data...
Loading historical data...

Documentation

Showing up to 5 results
|